TimePST,TemperatureF,Dew PointF,Humidity,Sea Level PressureIn,VisibilityMPH,Wind Direction,Wind SpeedMPH,Gust SpeedMPH,PrecipitationIn,Events,Conditions,WindDirDegrees,DateUTC
12:15 AM,44.6,41.0,87,30.09,10.0,SSE,6.9,-,N/A,,Overcast,160,2013-01-25 08:15:00
12:55 AM,44.6,41.0,87,30.08,9.0,South,10.4,-,0.03,Rain,Light Rain,170,2013-01-25 08:55:00
1:15 AM,44.6,41.0,87,30.08,10.0,South,11.5,16.1,N/A,Rain,Light Rain,170,2013-01-25 09:15:00
1:35 AM,44.6,41.0,87,30.08,10.0,South,9.2,16.1,N/A,,Overcast,180,2013-01-25 09:35:00
1:55 AM,44.6,41.0,87,30.08,10.0,South,10.4,17.3,N/A,,Scattered Clouds,170,2013-01-25 09:55:00
2:15 AM,44.6,41.0,87,30.09,10.0,South,9.2,-,N/A,,Mostly Cloudy,180,2013-01-25 10:15:00
2:55 AM,44.6,41.0,87,30.09,10.0,South,8.1,-,N/A,,Overcast,170,2013-01-25 10:55:00
3:15 AM,44.6,41.0,87,30.08,10.0,South,9.2,-,N/A,,Overcast,170,2013-01-25 11:15:00
3:35 AM,44.6,41.0,87,30.08,10.0,South,9.2,-,N/A,,Mostly Cloudy,180,2013-01-25 11:35:00
3:55 AM,44.6,41.0,87,30.08,10.0,South,9.2,-,N/A,,Overcast,190,2013-01-25 11:55:00
4:15 AM,44.6,41.0,87,30.07,10.0,South,8.1,-,N/A,,Overcast,190,2013-01-25 12:15:00
4:35 AM,44.6,41.0,87,30.07,10.0,South,8.1,-,N/A,,Overcast,190,2013-01-25 12:35:00
4:55 AM,44.6,41.0,87,30.07,10.0,South,5.8,-,N/A,,Mostly Cloudy,190,2013-01-25 12:55:00
5:15 AM,44.6,41.0,87,30.07,10.0,SSW,6.9,-,N/A,,Mostly Cloudy,200,2013-01-25 13:15:00
5:35 AM,44.6,42.8,93,30.07,10.0,SSW,5.8,-,N/A,,Overcast,200,2013-01-25 13:35:00
5:55 AM,44.6,42.8,93,30.07,8.0,SSW,5.8,-,N/A,Rain,Light Rain,210,2013-01-25 13:55:00
6:15 AM,44.6,42.8,93,30.07,7.0,SSW,6.9,-,N/A,Rain,Light Rain,200,2013-01-25 14:15:00
6:35 AM,44.6,42.8,93,30.07,5.0,SSW,6.9,-,N/A,,Overcast,200,2013-01-25 14:35:00
6:55 AM,44.6,42.8,93,30.07,7.0,South,6.9,-,N/A,,Overcast,190,2013-01-25 14:55:00
7:15 AM,42.8,41.0,93,30.07,5.0,South,5.8,-,N/A,,Overcast,190,2013-01-25 15:15:00
7:35 AM,41.0,41.0,100,30.06,4.0,South,5.8,-,N/A,,Scattered Clouds,190,2013-01-25 15:35:00
7:55 AM,41.0,41.0,100,30.06,3.0,Calm,Calm,-,N/A,,Clear,0,2013-01-25 15:55:00
8:15 AM,41.0,39.2,93,30.06,1.8,SSW,3.5,-,N/A,,Clear,200,2013-01-25 16:15:00
8:35 AM,39.2,39.2,100,30.06,1.2,Calm,Calm,-,N/A,,Clear,0,2013-01-25 16:35:00
8:55 AM,39.2,39.2,100,30.06,2.0,Calm,Calm,-,N/A,,Scattered Clouds,0,2013-01-25 16:55:00
9:15 AM,39.2,39.2,100,30.06,1.8,Calm,Calm,-,N/A,,Mostly Cloudy,0,2013-01-25 17:15:00
9:35 AM,41.0,39.2,93,30.07,4.0,SW,3.5,-,N/A,,Partly Cloudy,230,2013-01-25 17:35:00
9:55 AM,39.2,39.2,100,30.07,2.5,SW,3.5,-,N/A,,Partly Cloudy,230,2013-01-25 17:55:00
10:15 AM,44.6,44.6,100,30.07,4.0,SSW,4.6,-,N/A,,Scattered Clouds,210,2013-01-25 18:15:00
10:35 AM,44.6,44.6,100,30.07,4.0,SW,3.5,-,N/A,,Scattered Clouds,230,2013-01-25 18:35:00
10:55 AM,46.4,44.6,93,30.06,5.0,South,4.6,-,N/A,,Clear,190,2013-01-25 18:55:00
11:15 AM,48.2,46.4,93,30.06,5.0,SSE,6.9,-,N/A,,Mostly Cloudy,160,2013-01-25 19:15:00
11:35 AM,50.0,46.4,87,30.05,10.0,South,5.8,-,N/A,,Mostly Cloudy,180,2013-01-25 19:35:00
11:55 AM,48.2,46.4,93,30.04,5.0,South,5.8,-,N/A,,Mostly Cloudy,180,2013-01-25 19:55:00
12:15 PM,50.0,44.6,82,30.03,9.0,South,3.5,-,N/A,,Overcast,190,2013-01-25 20:15:00
12:35 PM,50.0,44.6,82,30.02,5.0,SSE,4.6,-,N/A,,Haze,160,2013-01-25 20:35:00
12:55 PM,50.0,46.4,87,30.02,5.0,SSE,6.9,-,N/A,,Haze,160,2013-01-25 20:55:00
1:15 PM,51.8,46.4,82,30.01,5.0,SSE,3.5,-,N/A,,Haze,160,2013-01-25 21:15:00
1:55 PM,51.8,46.4,82,30.00,10.0,ESE,3.5,-,N/A,,Scattered Clouds,110,2013-01-25 21:55:00
2:15 PM,53.6,44.6,72,29.99,10.0,SSE,3.5,-,N/A,,Mostly Cloudy,160,2013-01-25 22:15:00
2:55 PM,50.0,46.4,87,29.99,10.0,South,6.9,-,N/A,,Mostly Cloudy,170,2013-01-25 22:55:00
3:15 PM,50.0,44.6,82,29.98,10.0,South,5.8,-,N/A,,Partly Cloudy,180,2013-01-25 23:15:00
3:35 PM,50.0,44.6,82,29.98,10.0,South,4.6,-,N/A,,Partly Cloudy,190,2013-01-25 23:35:00
3:55 PM,50.0,46.4,87,29.98,5.0,South,4.6,-,N/A,,Haze,190,2013-01-25 23:55:00
4:15 PM,50.0,44.6,82,29.98,10.0,Calm,Calm,-,N/A,,Clear,0,2013-01-26 00:15:00
4:35 PM,50.0,44.6,82,29.98,10.0,Calm,Calm,-,N/A,,Clear,0,2013-01-26 00:35:00
4:55 PM,48.2,44.6,87,29.99,10.0,Calm,Calm,-,N/A,,Scattered Clouds,0,2013-01-26 00:55:00
5:15 PM,46.4,41.0,81,29.99,10.0,SW,3.5,-,N/A,,Partly Cloudy,230,2013-01-26 01:15:00
5:55 PM,41.0,39.2,93,29.99,10.0,Calm,Calm,-,N/A,,Clear,0,2013-01-26 01:55:00
6:15 PM,41.0,39.2,93,29.98,10.0,Calm,Calm,-,N/A,,Clear,0,2013-01-26 02:15:00
6:35 PM,39.2,37.4,93,29.98,10.0,West,3.5,-,N/A,,Clear,260,2013-01-26 02:35:00
6:55 PM,39.2,37.4,93,29.98,9.0,SW,4.6,-,N/A,,Clear,230,2013-01-26 02:55:00
7:15 PM,41.0,37.4,87,29.98,9.0,SSW,4.6,-,N/A,,Clear,200,2013-01-26 03:15:00
7:35 PM,39.2,35.6,87,29.97,10.0,NE,3.5,-,N/A,,Clear,40,2013-01-26 03:35:00
7:55 PM,37.4,35.6,93,29.97,10.0,Calm,Calm,-,N/A,,Clear,0,2013-01-26 03:55:00
8:15 PM,35.6,35.6,100,29.97,10.0,Calm,Calm,-,N/A,,Clear,0,2013-01-26 04:15:00
8:35 PM,35.6,33.8,93,29.97,7.0,Calm,Calm,-,N/A,,Clear,0,2013-01-26 04:35:00
8:55 PM,33.8,32.0,93,29.97,7.0,Calm,Calm,-,N/A,,Clear,0,2013-01-26 04:55:00
9:15 PM,33.8,32.0,93,29.97,10.0,Calm,Calm,-,N/A,,Scattered Clouds,0,2013-01-26 05:15:00
9:35 PM,33.8,32.0,93,29.97,9.0,Calm,Calm,-,N/A,,Mostly Cloudy,0,2013-01-26 05:35:00
9:55 PM,33.8,32.0,93,29.96,6.0,South,3.5,-,N/A,,Scattered Clouds,190,2013-01-26 05:55:00
10:15 PM,32.0,32.0,100,29.96,5.0,SW,3.5,-,N/A,,Overcast,230,2013-01-26 06:15:00
10:35 PM,32.0,32.0,100,29.96,8.0,WSW,4.6,-,N/A,,Mostly Cloudy,240,2013-01-26 06:35:00
10:55 PM,32.0,32.0,100,29.96,10.0,SSW,3.5,-,N/A,,Clear,200,2013-01-26 06:55:00
11:15 PM,32.0,32.0,100,29.97,9.0,Calm,Calm,-,N/A,,Mostly Cloudy,0,2013-01-26 07:15:00
11:35 PM,32.0,32.0,100,29.96,10.0,South,3.5,-,N/A,,Mostly Cloudy,190,2013-01-26 07:35:00
11:55 PM,32.0,32.0,100,29.95,10.0,Calm,Calm,-,N/A,,Mostly Cloudy,0,2013-01-26 07:55:00